Dayton Wright, OH

7:56 AM EDT on March 27, 2017 (GMT -0400)
Dayton-Wright Brothers

Weather History for KMGY - September, 2013

Change the Weather History Date:

Tuesday, September 10, 2013

  Actual Average (KFFO) Record (KFFO)
Temperature  
Mean Temperature 82 °F -  
Max Temperature 93 °F 77 °F 95 °F (2013)
Min Temperature 73 °F 54 °F 41 °F (1998)
Cooling Degree Days 17    
Growing Degree Days 32 (Base 50)    
Moisture  
Dew Point 70 °F    
Average Humidity 68    
Maximum Humidity 87    
Minimum Humidity 50    
Precipitation  
Precipitation 0.00 in - - ()
Sea Level Pressure  
Sea Level Pressure 30.08 in    
Wind  
Wind Speed 7 mph (SSW)    
Max Wind Speed 12 mph    
Max Gust Speed 18 mph    
Visibility 9 miles    
Events Thunderstorm    
Averages and records for this station are not official NWS values.
T = Trace of Precipitation, MM = Missing Value Source: NWS Daily Summary

Daily Weather History Graph

Daily Weather History Graph

Search for Another Location

Airport or City:

Trip Planner

Search our weather history database for the weather conditions in past years. The results will help you decide how hot, cold, wet, or windy it might be!

Date:

Astronomy

Sep. 10, 2013 Rise Set
Actual Time 7:13 AM EDT 7:53 PM EDT
Civil Twilight 6:46 AM EDT 8:20 PM EDT
Nautical Twilight 6:14 AM EDT 8:52 PM EDT
Astronomical Twilight 5:41 AM EDT 9:25 PM EDT
Moon 12:36 PM EDT (9/10) 10:56 PM EDT (9/10)
Length of Visible Light 13h 33m
Length of Day
12h 39m
Waxing Crescent, 28% of the Moon is Illuminated
Sep 10
Waxing Crescent
Sep 12
First Quarter
Sep 19
Full
Sep 26
Last Quarter
Oct 4
New

Hourly Weather History & Observations

Time (EDT) Temp. Heat Index Dew Point Humidity Pressure Visibility Wind Dir Wind Speed Gust Speed Precip Events Conditions
12:53 AM 73.9 °F - 68.0 °F 82% 30.01 in 10.0 mi South 6.9 mph - N/A   Clear
1:53 AM 73.9 °F - 68.0 °F 82% 30.01 in 10.0 mi South 5.8 mph - N/A   Clear
2:53 AM 73.0 °F - 68.0 °F 84% 30.03 in 10.0 mi South 6.9 mph - N/A   Clear
3:53 AM 73.0 °F - 68.0 °F 84% 30.03 in 9.0 mi South 8.1 mph - N/A   Clear
4:53 AM 73.0 °F - 68.0 °F 84% 30.04 in 8.0 mi South 6.9 mph - N/A   Clear
5:53 AM 73.9 °F - 69.1 °F 85% 30.06 in 8.0 mi SSW 4.6 mph - N/A   Mostly Cloudy
6:53 AM 73.0 °F - 69.1 °F 87% 30.07 in 7.0 mi South 5.8 mph - N/A   Mostly Cloudy
7:53 AM 73.0 °F - 69.1 °F 87% 30.10 in 6.0 mi South 4.6 mph - N/A   Scattered Clouds
8:53 AM 77.0 °F - 70.0 °F 79% 30.10 in 7.0 mi South 9.2 mph - N/A   Clear
9:53 AM 81.0 °F 85.2 °F 72.0 °F 74% 30.11 in 8.0 mi SW 9.2 mph - N/A   Clear
10:53 AM 84.0 °F 89.6 °F 72.0 °F 67% 30.11 in 8.0 mi SW 10.4 mph - N/A   Clear
11:53 AM 87.1 °F 92.8 °F 71.1 °F 59% 30.10 in 10.0 mi WSW 10.4 mph 17.3 mph N/A   Clear
12:53 PM 89.1 °F 95.0 °F 71.1 °F 55% 30.10 in 10.0 mi WSW 10.4 mph 17.3 mph N/A   Clear
1:53 PM 91.0 °F 98.2 °F 72.0 °F 53% 30.09 in 10.0 mi South 11.5 mph - N/A   Clear
2:53 PM 91.9 °F 99.5 °F 72.0 °F 52% 30.09 in 10.0 mi SSW 11.5 mph 18.4 mph N/A   Partly Cloudy
3:53 PM 91.9 °F 98.4 °F 71.1 °F 50% 30.06 in 10.0 mi SW 11.5 mph - N/A   Partly Cloudy
4:53 PM 89.1 °F 95.0 °F 71.1 °F 55% 30.06 in 10.0 mi SSW 8.1 mph - N/A   Clear
5:13 PM 89.6 °F 94.7 °F 69.8 °F 52% 30.09 in 9.0 mi SSW 9.2 mph - N/A Thunderstorm Clear
5:34 PM 89.6 °F 96.2 °F 71.6 °F 55% 30.09 in 9.0 mi SSW 10.4 mph - N/A   Clear
5:45 PM 87.8 °F 93.8 °F 71.6 °F 58% 30.08 in 10.0 mi SSW 8.1 mph - N/A Thunderstorm Clear
5:53 PM 88.0 °F 93.8 °F 71.1 °F 57% 30.06 in 9.0 mi SW 8.1 mph - N/A Thunderstorm Thunderstorm
6:14 PM 84.2 °F 87.3 °F 68.0 °F 58% 30.09 in 10.0 mi West 6.9 mph - N/A   Partly Cloudy
6:53 PM 82.9 °F 86.5 °F 69.1 °F 63% 30.08 in 10.0 mi SSW 4.6 mph - N/A   Partly Cloudy
7:53 PM 82.9 °F 87.0 °F 70.0 °F 65% 30.09 in 10.0 mi WSW 5.8 mph - N/A   Clear
8:53 PM 82.0 °F 86.3 °F 71.1 °F 69% 30.10 in 10.0 mi WSW 3.5 mph - N/A   Clear
9:53 PM 79.0 °F - 70.0 °F 74% 30.11 in 10.0 mi SSW 4.6 mph - N/A   Clear
10:53 PM 78.1 °F - 69.1 °F 74% 30.12 in 10.0 mi Calm Calm - N/A   Clear
11:53 PM 78.1 °F - 66.9 °F 68% 30.13 in 10.0 mi SW 4.6 mph - N/A   Clear